This is the latest recevied weather packets stored in our database for station/object W5LND-10. If no packets are shown the sender has not sent any weather packets the latest 10 day(s).
| Time | Temp. | Humidity | Pressure | Rain* | Wind** | Luminosity | Snow |
|---|---|---|---|---|---|---|---|
| 1777421489 | 34.44° C | 5% | 1003.8 hPa | 0 mm | - | 79 W/m² | - |
| 1777421189 | 35° C | 5% | 1003.8 hPa | 0 mm | - | 76 W/m² | - |
| 1777420889 | 35° C | 5% | 1003.8 hPa | 0 mm | - | 146 W/m² | - |
| 1777420589 | 35° C | 5% | 1003.8 hPa | 0 mm | - | 84 W/m² | - |
| 1777420289 | 35° C | 5% | 1003.8 hPa | 0 mm | - | 227 W/m² | - |
| 1777419989 | 34.44° C | 5% | 1003.7 hPa | 0 mm | - | 243 W/m² | - |
| 1777419689 | 34.44° C | 4% | 1003.7 hPa | 0 mm | - | 232 W/m² | - |
| 1777419389 | 34.44° C | 4% | 1003.7 hPa | 0 mm | - | 283 W/m² | - |
| 1777419089 | 35° C | 4% | 1003.7 hPa | 0 mm | - | 271 W/m² | - |
| 1777418789 | 34.44° C | 5% | 1003.8 hPa | 0 mm | - | 267 W/m² | - |
| 1777418491 | 34.44° C | 4% | 1003.8 hPa | 0 mm | - | 193 W/m² | - |
| 1777418189 | 35° C | 4% | 1003.7 hPa | 0 mm | - | 193 W/m² | - |
| 1777417889 | 35° C | 4% | 1003.6 hPa | 0 mm | - | 232 W/m² | - |
| 1777417589 | 35° C | 4% | 1003.8 hPa | 0 mm | - | 250 W/m² | - |
| 1777417289 | 35° C | 4% | 1003.7 hPa | 0 mm | - | 394 W/m² | - |
| 1777416989 | 35° C | 4% | 1003.6 hPa | 0 mm | - | 265 W/m² | - |
| 1777416689 | 35° C | 4% | 1003.5 hPa | 0 mm | - | 246 W/m² | - |
| 1777416389 | 35.56° C | 4% | 1003.7 hPa | 0 mm | - | 234 W/m² | - |
| 1777416089 | 35.56° C | 5% | 1003.5 hPa | 0 mm | - | 563 W/m² | - |
| 1777415789 | 35.56° C | 5% | 1003.7 hPa | 0 mm | - | 585 W/m² | - |
| 1777415489 | 35.56° C | 5% | 1003.7 hPa | 0 mm | - | 297 W/m² | - |
| 1777415189 | 35.56° C | 5% | 1003.6 hPa | 0 mm | - | 281 W/m² | - |
| 1777414889 | 36.11° C | 5% | 1003.4 hPa | 0 mm | - | 522 W/m² | - |
| 1777414589 | 36.67° C | 5% | 1003.6 hPa | 0 mm | - | 601 W/m² | - |
| 1777414289 | 36.11° C | 5% | 1003.5 hPa | 0 mm | - | 570 W/m² | - |
* Rain latest hour (hover to see other rain measurements)
** Current wind speed in m/s (hover to see current wind gust speed)